Location: Grums
(59.3529°N, 13.1129°E)
Time: 00:58:40
(UTC+01:00)

SEEDS - Pass Details

Date: 05 December 2021
Orbit: 584 x 600 km, 97.6° (Epoch: 27 January)

Event Time Altitude Azimuth Distance (km) Brightness Sun altitude
Rises 06:59:47 0° 10° (N) 2,830 ? -11.7°
Reaches altitude 10° 07:02:41 10° 348° (NNW) 1,923 ? -11.4°
Maximum altitude 07:05:07 15° 312° (NW) 1,597 ? -11.1°
Enters shadow 07:05:23 15° 307° (NW) 1,601 ? -11.0°
